| time (UTC) | temp F | wind direction | speed MPH | gust MPH | rain 1hr in | rain 24hr in | rain mn in | humidity % | barometer mb |
| 20260508133438 | 69 | 116 | 5.0 | 11.0 | 0.00 | 0.00 | 0.00 | 67 | 1010.0 |
| 20260508132937 | 69 | 94 | 4.0 | 12.0 | 0.00 | 0.00 | 0.00 | 67 | 1010.0 |
| 20260508132439 | 69 | 117 | 4.0 | 12.0 | 0.00 | 0.00 | 0.00 | 67 | 1010.0 |
| 20260508131938 | 69 | 104 | 6.0 | 14.0 | 0.00 | 0.00 | 0.00 | 66 | 1010.0 |
| 20260508131438 | 69 | 89 | 8.0 | 17.0 | 0.00 | 0.00 | 0.00 | 64 | 1010.0 |
| 20260508131247 | 68 | 116 | 8.0 | 17.0 | 0.00 | 0.00 | 0.00 | 67 | 1009.9 |
| 20260508130438 | 68 | 99 | 6.0 | 12.0 | 0.00 | 0.00 | 0.00 | 66 | 1009.9 |
| 20260508125939 | 68 | 65 | 4.0 | 12.0 | 0.00 | 0.00 | 0.00 | 67 | 1009.9 |
| 20260508125438 | 68 | 117 | 6.0 | 14.0 | 0.00 | 0.00 | 0.00 | 70 | 1009.9 |
| 20260508124938 | 67 | 87 | 7.0 | 14.0 | 0.00 | 0.00 | 0.00 | 67 | 1010.0 |
| 20260508124438 | 67 | 106 | 8.0 | 14.0 | 0.00 | 0.00 | 0.00 | 67 | 1010.0 |
| 20260508123939 | 67 | 89 | 7.0 | 15.0 | 0.00 | 0.00 | 0.00 | 68 | 1010.1 |
| 20260508123437 | 68 | 97 | 7.0 | 15.0 | 0.00 | 0.00 | 0.00 | 67 | 1010.1 |
| 20260508122940 | 68 | 56 | 8.0 | 13.0 | 0.00 | 0.00 | 0.00 | 68 | 1010.0 |
| 20260508122437 | 68 | 114 | 7.0 | 14.0 | 0.00 | 0.00 | 0.00 | 66 | 1010.0 |
| 20260508121935 | 68 | 103 | 6.0 | 14.0 | 0.00 | 0.00 | 0.00 | 65 | 1010.1 |
| 20260508121436 | 68 | 90 | 8.0 | 13.0 | 0.00 | 0.00 | 0.00 | 67 | 1010.0 |
| 20260508120936 | 68 | 104 | 6.0 | 12.0 | 0.00 | 0.00 | 0.00 | 67 | 1010.1 |
| 20260508120436 | 68 | 86 | 8.0 | 12.0 | 0.00 | 0.00 | 0.00 | 66 | 1010.2 |
| 20260508115938 | 68 | 104 | 7.0 | 12.0 | 0.00 | 0.00 | 0.00 | 68 | 1010.1 |
| 20260508115437 | 68 | 58 | 5.0 | 11.0 | 0.00 | 0.00 | 0.00 | 67 | 1010.1 |
| 20260508115244 | 68 | 120 | 5.0 | 11.0 | 0.00 | 0.00 | 0.00 | 68 | 1010.2 |
| 20260508114437 | 68 | 103 | 5.0 | 12.0 | 0.00 | 0.00 | 0.00 | 68 | 1010.3 |
| 20260508113934 | 68 | 130 | 6.0 | 12.0 | 0.00 | 0.00 | 0.00 | 67 | 1010.4 |
| 20260508113433 | 68 | 121 | 6.0 | 12.0 | 0.00 | 0.00 | 0.00 | 67 | 1010.4 |
| 20260508113103 | 68 | 128 | 6.0 | 14.0 | 0.00 | 0.00 | 0.00 | 69 | 1010.6 |
| 20260508113032 | 68 | 133 | 5.0 | 13.0 | 0.00 | 0.00 | 0.00 | 71 | 1010.5 |
| 20260508111936 | 68 | 109 | 7.0 | 14.0 | 0.00 | 0.00 | 0.00 | 70 | 1010.6 |
| 20260508111436 | 68 | 90 | 8.0 | 13.0 | 0.00 | 0.00 | 0.00 | 70 | 1010.6 |
| 20260508110936 | 68 | 133 | 7.0 | 11.0 | 0.00 | 0.00 | 0.00 | 69 | 1010.6 |
| 20260508110435 | 68 | 75 | 6.0 | 11.0 | 0.00 | 0.00 | 0.00 | 70 | 1010.7 |
| 20260508105936 | 67 | 73 | 6.0 | 12.0 | 0.00 | 0.00 | 0.00 | 70 | 1010.7 |
| 20260508105435 | 67 | 100 | 6.0 | 14.0 | 0.00 | 0.00 | 0.00 | 70 | 1010.9 |
| 20260508104935 | 67 | 124 | 6.0 | 14.0 | 0.00 | 0.00 | 0.00 | 69 | 1010.8 |
| 20260508104742 | 67 | 71 | 5.0 | 10.0 | 0.00 | 0.00 | 0.00 | 71 | 1010.7 |
| 20260508104237 | 67 | 110 | 4.0 | 12.0 | 0.00 | 0.00 | 0.00 | 71 | 1010.6 |
| 20260508103436 | 67 | 182 | 8.0 | 12.0 | 0.00 | 0.00 | 0.00 | 71 | 1010.8 |
| 20260508103241 | 67 | 103 | 6.0 | 12.0 | 0.00 | 0.00 | 0.00 | 72 | 1010.8 |
| 20260508102434 | 67 | 127 | 9.0 | 12.0 | 0.00 | 0.00 | 0.00 | 70 | 1010.9 |
| 20260508101934 | 66 | 100 | 5.0 | 12.0 | 0.00 | 0.00 | 0.00 | 74 | 1010.9 |
| 20260508101431 | 66 | 85 | 6.0 | 12.0 | 0.00 | 0.00 | 0.00 | 73 | 1011.0 |
| 20260508100934 | 66 | 117 | 5.0 | 10.0 | 0.00 | 0.00 | 0.00 | 72 | 1010.8 |
| 20260508100434 | 66 | 110 | 6.0 | 12.0 | 0.00 | 0.00 | 0.00 | 73 | 1010.8 |
| 20260508095933 | 66 | 73 | 6.0 | 12.0 | 0.00 | 0.00 | 0.00 | 74 | 1010.8 |
| 20260508095432 | 66 | 106 | 6.0 | 10.0 | 0.00 | 0.00 | 0.00 | 74 | 1010.8 |
| 20260508094936 | 65 | 125 | 6.0 | 11.0 | 0.00 | 0.00 | 0.00 | 74 | 1010.7 |
| 20260508094434 | 65 | 71 | 7.0 | 12.0 | 0.00 | 0.00 | 0.00 | 73 | 1010.9 |
| 20260508093933 | 65 | 113 | 7.0 | 13.0 | 0.00 | 0.00 | 0.00 | 74 | 1010.7 |
| 20260508093735 | 65 | 124 | 9.0 | 13.0 | 0.00 | 0.00 | 0.00 | 73 | 1010.7 |
| 20260508092933 | 65 | 125 | 6.0 | 13.0 | 0.00 | 0.00 | 0.00 | 76 | 1011.0 |
| 20260508092433 | 64 | 97 | 5.0 | 12.0 | 0.00 | 0.00 | 0.00 | 75 | 1010.9 |
| 20260508091934 | 64 | 125 | 6.0 | 12.0 | 0.00 | 0.00 | 0.00 | 75 | 1010.9 |
| 20260508091434 | 64 | 100 | 6.0 | 11.0 | 0.00 | 0.00 | 0.00 | 77 | 1010.9 |
| 20260508091237 | 64 | 73 | 4.0 | 12.0 | 0.00 | 0.00 | 0.00 | 78 | 1010.9 |
| 20260508090432 | 63 | 103 | 6.0 | 12.0 | 0.00 | 0.00 | 0.00 | 76 | 1011.0 |
| 20260508085933 | 63 | 89 | 7.0 | 13.0 | 0.00 | 0.00 | 0.00 | 78 | 1011.0 |
| 20260508085737 | 63 | 97 | 8.0 | 13.0 | 0.00 | 0.00 | 0.00 | 77 | 1011.1 |
| 20260508084931 | 63 | 97 | 6.0 | 13.0 | 0.00 | 0.00 | 0.00 | 78 | 1011.1 |
| 20260508084740 | 62 | 127 | 4.0 | 9.0 | 0.00 | 0.00 | 0.00 | 79 | 1011.1 |
| 20260508083932 | 62 | 125 | 6.0 | 10.0 | 0.00 | 0.00 | 0.00 | 81 | 1011.1 |
| 20260508083432 | 61 | 92 | 4.0 | 10.0 | 0.00 | 0.00 | 0.00 | 81 | 1011.2 |
| 20260508082930 | 61 | 100 | 5.0 | 11.0 | 0.00 | 0.00 | 0.00 | 79 | 1011.3 |
| 20260508082432 | 62 | 104 | 5.0 | 12.0 | 0.00 | 0.00 | 0.00 | 80 | 1011.3 |
| 20260508081931 | 61 | 111 | 5.0 | 12.0 | 0.00 | 0.00 | 0.00 | 80 | 1011.3 |
| 20260508081733 | 61 | 124 | 5.0 | 14.0 | 0.00 | 0.00 | 0.00 | 82 | 1011.3 |
| 20260508080931 | 60 | 82 | 9.0 | 14.0 | 0.00 | 0.00 | 0.00 | 80 | 1011.3 |
| 20260508080431 | 60 | 94 | 8.0 | 13.0 | 0.00 | 0.00 | 0.00 | 81 | 1011.2 |
| 20260508075930 | 60 | 93 | 6.0 | 9.0 | 0.00 | 0.00 | 0.00 | 81 | 1011.2 |
| 20260508075430 | 60 | 100 | 6.0 | 9.0 | 0.00 | 0.00 | 0.00 | 82 | 1011.3 |
| 20260508074928 | 59 | 121 | 5.0 | 9.0 | 0.00 | 0.00 | 0.00 | 82 | 1011.3 |
| 20260508074431 | 59 | 103 | 3.0 | 7.0 | 0.00 | 0.00 | 0.00 | 84 | 1011.4 |
| 20260508073931 | 58 | 120 | 4.0 | 7.0 | 0.00 | 0.00 | 0.00 | 84 | 1011.4 |
| 20260508073430 | 58 | 103 | 3.0 | 6.0 | 0.00 | 0.00 | 0.00 | 85 | 1011.3 |
| 20260508072930 | 58 | 94 | 3.0 | 5.0 | 0.00 | 0.00 | 0.00 | 85 | 1011.3 |
| 20260508072430 | 57 | 103 | 2.0 | 5.0 | 0.00 | 0.00 | 0.00 | 86 | 1011.3 |
| 20260508071930 | 58 | 104 | 1.0 | 3.0 | 0.00 | 0.00 | 0.00 | 86 | 1011.3 |
| 20260508071430 | 57 | 113 | 1.0 | 3.0 | 0.00 | 0.00 | 0.00 | 87 | 1011.3 |
| 20260508071241 | 56 | 131 | 1.0 | 3.0 | 0.00 | 0.00 | 0.00 | 88 | 1011.3 |
| 20260508070429 | 56 | 85 | 0.0 | 3.0 | 0.00 | 0.00 | 0.00 | 90 | 1011.2 |
| 20260508065930 | 55 | 116 | 1.0 | 3.0 | 0.00 | 0.00 | 0.00 | 91 | 1011.3 |
| 20260508065430 | 55 | 116 | 0.0 | 2.0 | 0.00 | 0.00 | 0.00 | 93 | 1011.3 |
| 20260508064929 | 54 | 92 | 0.0 | 2.0 | 0.00 | 0.00 | 0.00 | 95 | 1011.2 |
| 20260508064443 | 53 | 97 | 0.0 | 2.0 | 0.00 | 0.00 | 0.00 | 95 | 1011.2 |
| 20260508063928 | 52 | 117 | 1.0 | 2.0 | 0.00 | 0.00 | 0.00 | 96 | 1011.2 |
| 20260508063429 | 51 | 109 | 0.0 | 2.0 | 0.00 | 0.00 | 0.00 | 97 | 1011.3 |
| 20260508062929 | 51 | 104 | 1.0 | 1.0 | 0.00 | 0.00 | 0.00 | 96 | 1011.2 |
| 20260508062430 | 50 | 92 | 1.0 | 2.0 | 0.00 | 0.00 | 0.00 | 96 | 1011.2 |
| 20260508062234 | 50 | 93 | 1.0 | 2.0 | 0.00 | 0.00 | 0.00 | 97 | 1011.3 |
| 20260508061429 | 49 | 276 | 0.0 | 0.0 | 0.00 | 0.00 | 0.00 | 97 | 1011.2 |
| 20260508060928 | 49 | 278 | 0.0 | 0.0 | 0.00 | 0.00 | 0.00 | 97 | 1011.1 |
| 20260508060738 | 48 | 278 | 0.0 | 0.0 | 0.00 | 0.00 | 0.00 | 97 | 1011.1 |
| 20260508060047 | 48 | 276 | 0.0 | 0.0 | 0.00 | 0.00 | 0.00 | 97 | 1011.0 |
| 20260508060020 | 48 | 276 | 0.0 | 0.0 | 0.00 | 0.00 | 0.00 | 97 | 1011.1 |
| 20260508055237 | 47 | 276 | 0.0 | 0.0 | 0.00 | 0.00 | 0.00 | 97 | 1011.0 |
| 20260508054736 | 47 | 276 | 0.0 | 0.0 | 0.00 | 0.00 | 0.00 | 97 | 1011.0 |
| 20260508053929 | 47 | 276 | 0.0 | 0.0 | 0.00 | 0.00 | 0.00 | 97 | 1010.9 |
| 20260508053428 | 46 | 276 | 0.0 | 0.0 | 0.00 | 0.00 | 0.00 | 96 | 1010.9 |
| 20260508052927 | 46 | 276 | 0.0 | 0.0 | 0.00 | 0.00 | 0.00 | 96 | 1010.8 |
| 20260508052428 | 46 | 276 | 0.0 | 0.0 | 0.00 | 0.00 | 0.00 | 96 | 1010.9 |
| 20260508051927 | 46 | 276 | 0.0 | 0.0 | 0.00 | 0.00 | 0.00 | 96 | 1010.8 |
| 20260508051427 | 46 | 276 | 0.0 | 0.0 | 0.00 | 0.00 | 0.00 | 96 | 1010.7 |
| 20260508050927 | 46 | 276 | 0.0 | 0.0 | 0.00 | 0.00 | 0.00 | 96 | 1010.7 |
| 20260508050428 | 46 | 276 | 0.0 | 0.0 | 0.00 | 0.00 | 0.00 | 96 | 1010.6 |
| 20260508045928 | 46 | 276 | 0.0 | 0.0 | 0.00 | 0.00 | 0.00 | 96 | 1010.6 |
| 20260508045427 | 46 | 276 | 0.0 | 0.0 | 0.00 | 0.00 | 0.00 | 95 | 1010.5 |
| 20260508044927 | 47 | 276 | 0.0 | 0.0 | 0.00 | 0.00 | 0.00 | 95 | 1010.5 |
| 20260508044427 | 47 | 276 | 0.0 | 0.0 | 0.00 | 0.00 | 0.00 | 96 | 1010.4 |
| 20260508043926 | 47 | 276 | 0.0 | 0.0 | 0.00 | 0.00 | 0.00 | 96 | 1010.5 |
| 20260508043427 | 48 | 276 | 0.0 | 0.0 | 0.00 | 0.00 | 0.00 | 97 | 1010.5 |
| 20260508043051 | 47 | 276 | 0.0 | 0.0 | 0.00 | 0.00 | 0.00 | 96 | 1010.4 |
| 20260508043022 | 47 | 276 | 0.0 | 0.0 | 0.00 | 0.00 | 0.00 | 97 | 1010.4 |
| 20260508042228 | 47 | 276 | 0.0 | 0.0 | 0.00 | 0.00 | 0.00 | 96 | 1010.4 |
| 20260508041426 | 47 | 276 | 0.0 | 0.0 | 0.00 | 0.00 | 0.00 | 95 | 1010.4 |
| 20260508041231 | 47 | 276 | 0.0 | 0.0 | 0.00 | 0.00 | 0.00 | 96 | 1010.5 |
| 20260508040425 | 47 | 276 | 0.0 | 0.0 | 0.00 | 0.00 | 0.00 | 96 | 1010.6 |
| 20260508035924 | 47 | 276 | 0.0 | 0.0 | 0.00 | 0.00 | 0.00 | 95 | 1010.5 |
| 20260508035424 | 47 | 276 | 0.0 | 0.0 | 0.00 | 0.00 | 0.00 | 95 | 1010.5 |
| 20260508034924 | 47 | 276 | 0.0 | 0.0 | 0.00 | 0.00 | 0.00 | 96 | 1010.5 |
| 20260508034424 | 47 | 276 | 0.0 | 0.0 | 0.00 | 0.00 | 0.00 | 95 | 1010.5 |
| 20260508033923 | 47 | 276 | 0.0 | 0.0 | 0.00 | 0.00 | 0.00 | 94 | 1010.5 |
| 20260508033425 | 47 | 276 | 0.0 | 0.0 | 0.00 | 0.00 | 0.00 | 95 | 1010.6 |
| 20260508032923 | 47 | 276 | 0.0 | 0.0 | 0.00 | 0.00 | 0.00 | 96 | 1010.5 |
| 20260508032429 | 47 | 276 | 0.0 | 0.0 | 0.00 | 0.00 | 0.00 | 95 | 1010.5 |
| 20260508031925 | 47 | 276 | 0.0 | 0.0 | 0.00 | 0.00 | 0.00 | 94 | 1010.5 |
| 20260508031425 | 48 | 276 | 0.0 | 0.0 | 0.00 | 0.00 | 0.00 | 93 | 1010.5 |
| 20260508030924 | 49 | 276 | 0.0 | 0.0 | 0.00 | 0.00 | 0.00 | 95 | 1010.5 |
| 20260508030424 | 49 | 276 | 0.0 | 0.0 | 0.00 | 0.00 | 0.00 | 96 | 1010.6 |
| 20260508025938 | 49 | 276 | 0.0 | 0.0 | 0.00 | 0.00 | 0.00 | 96 | 1010.5 |
| 20260508025732 | 48 | 276 | 0.0 | 0.0 | 0.00 | 0.00 | 0.00 | 96 | 1010.4 |
| 20260508025237 | 48 | 276 | 0.0 | 0.0 | 0.00 | 0.00 | 0.00 | 96 | 1010.4 |
| 20260508024424 | 48 | 276 | 0.0 | 0.0 | 0.00 | 0.00 | 0.00 | 95 | 1010.5 |
| 20260508023924 | 47 | 276 | 0.0 | 0.0 | 0.00 | 0.00 | 0.00 | 95 | 1010.5 |
| 20260508023423 | 47 | 276 | 0.0 | 0.0 | 0.00 | 0.00 | 0.00 | 94 | 1010.6 |
| 20260508022924 | 48 | 278 | 0.0 | 0.0 | 0.00 | 0.00 | 0.00 | 93 | 1010.6 |
| 20260508022738 | 49 | 276 | 0.0 | 0.0 | 0.00 | 0.00 | 0.00 | 94 | 1010.6 |
| 20260508021922 | 49 | 276 | 0.0 | 0.0 | 0.00 | 0.00 | 0.00 | 94 | 1010.4 |
| 20260508021424 | 49 | 276 | 0.0 | 0.0 | 0.00 | 0.00 | 0.00 | 93 | 1010.4 |
| 20260508020923 | 49 | 276 | 0.0 | 0.0 | 0.00 | 0.00 | 0.00 | 95 | 1010.4 |
| 20260508020731 | 49 | 276 | 0.0 | 0.0 | 0.00 | 0.00 | 0.00 | 95 | 1010.5 |
| 20260508015923 | 49 | 276 | 0.0 | 0.0 | 0.00 | 0.00 | 0.00 | 94 | 1010.5 |
| 20260508015425 | 49 | 276 | 0.0 | 0.0 | 0.00 | 0.00 | 0.00 | 94 | 1010.5 |
| 20260508014922 | 49 | 276 | 0.0 | 0.0 | 0.00 | 0.00 | 0.00 | 94 | 1010.5 |
| 20260508014421 | 48 | 276 | 0.0 | 0.0 | 0.00 | 0.00 | 0.00 | 93 | 1010.6 |
| 20260508013922 | 49 | 276 | 0.0 | 0.0 | 0.00 | 0.00 | 0.00 | 93 | 1010.5 |
| 20260508013422 | 49 | 276 | 0.0 | 0.0 | 0.00 | 0.00 | 0.00 | 92 | 1010.5 |
| 20260508012925 | 50 | 276 | 0.0 | 0.0 | 0.00 | 0.00 | 0.00 | 93 | 1010.5 |
| 20260508012424 | 50 | 276 | 0.0 | 0.0 | 0.00 | 0.00 | 0.00 | 93 | 1010.5 |
| 20260508012235 | 50 | 276 | 0.0 | 0.0 | 0.00 | 0.00 | 0.00 | 94 | 1010.5 |
| 20260508011424 | 50 | 276 | 0.0 | 0.0 | 0.00 | 0.00 | 0.00 | 93 | 1010.6 |
| 20260508010922 | 50 | 276 | 0.0 | 0.0 | 0.00 | 0.00 | 0.00 | 92 | 1010.6 |
| 20260508010422 | 50 | 276 | 0.0 | 1.0 | 0.00 | 0.00 | 0.00 | 93 | 1010.6 |
| 20260508005921 | 50 | 276 | 0.0 | 1.0 | 0.00 | 0.00 | 0.00 | 93 | 1010.7 |
| 20260508005554 | 50 | 276 | 0.0 | 1.0 | 0.00 | 0.00 | 0.00 | 94 | 1010.7 |
| 20260508005520 | 50 | 276 | 0.0 | 1.0 | 0.00 | 0.00 | 0.00 | 93 | 1010.7 |
| 20260508004423 | 50 | 276 | 0.0 | 1.0 | 0.00 | 0.00 | 0.00 | 94 | 1010.6 |
| 20260508003922 | 50 | 276 | 0.0 | 1.0 | 0.00 | 0.00 | 0.00 | 94 | 1010.7 |
| 20260508003422 | 50 | 276 | 1.0 | 1.0 | 0.00 | 0.00 | 0.00 | 94 | 1010.7 |
| 20260508002921 | 50 | 276 | 1.0 | 1.0 | 0.00 | 0.00 | 0.00 | 94 | 1010.7 |
| 20260508002421 | 49 | 276 | 1.0 | 1.0 | 0.00 | 0.00 | 0.00 | 94 | 1010.8 |
| 20260508001922 | 49 | 276 | 1.0 | 1.0 | 0.00 | 0.00 | 0.00 | 94 | 1010.8 |
| 20260508001420 | 49 | 276 | 0.0 | 2.0 | 0.00 | 0.00 | 0.00 | 94 | 1011.0 |
| 20260508000920 | 49 | 276 | 0.0 | 2.0 | 0.00 | 0.00 | 0.00 | 93 | 1010.9 |
| 20260508000420 | 49 | 278 | 1.0 | 2.0 | 0.00 | 0.00 | 0.00 | 92 | 1011.0 |
| 20260508000234 | 50 | 271 | 1.0 | 2.0 | 0.00 | 0.00 | 0.00 | 93 | 1011.0 |
| 20260507235420 | 49 | 281 | 2.0 | 2.0 | 0.00 | 0.00 | 0.00 | 93 | 1010.9 |
| 20260507234921 | 50 | 286 | 1.0 | 2.0 | 0.00 | 0.00 | 0.00 | 93 | 1011.0 |
| 20260507234420 | 50 | 288 | 1.0 | 2.0 | 0.00 | 0.00 | 0.00 | 93 | 1010.9 |
| 20260507233919 | 50 | 288 | 1.0 | 2.0 | 0.00 | 0.00 | 0.00 | 92 | 1010.9 |
| 20260507233420 | 50 | 288 | 1.0 | 1.0 | 0.00 | 0.00 | 0.00 | 92 | 1010.9 |
| 20260507232932 | 50 | 288 | 1.0 | 1.0 | 0.00 | 0.00 | 0.00 | 92 | 1010.9 |
| 20260507232730 | 50 | 288 | 1.0 | 1.0 | 0.00 | 0.00 | 0.00 | 92 | 1011.0 |
| 20260507231918 | 50 | 288 | 1.0 | 1.0 | 0.00 | 0.00 | 0.00 | 91 | 1011.0 |
| 20260507231420 | 51 | 288 | 1.0 | 1.0 | 0.00 | 0.00 | 0.00 | 91 | 1011.2 |
| 20260507230920 | 51 | 288 | 1.0 | 1.0 | 0.00 | 0.00 | 0.00 | 91 | 1011.2 |
| 20260507230420 | 51 | 288 | 1.0 | 1.0 | 0.00 | 0.00 | 0.00 | 91 | 1011.3 |
| 20260507225918 | 51 | 288 | 0.0 | 1.0 | 0.00 | 0.00 | 0.00 | 92 | 1011.3 |
| 20260507225432 | 51 | 288 | 1.0 | 2.0 | 0.00 | 0.00 | 0.00 | 91 | 1011.3 |
| 20260507224920 | 51 | 288 | 1.0 | 2.0 | 0.00 | 0.00 | 0.00 | 90 | 1011.3 |
| 20260507224419 | 51 | 288 | 1.0 | 1.0 | 0.00 | 0.00 | 0.00 | 90 | 1011.4 |
| 20260507223916 | 52 | 288 | 1.0 | 1.0 | 0.00 | 0.00 | 0.00 | 90 | 1011.4 |
| 20260507223416 | 52 | 288 | 1.0 | 1.0 | 0.00 | 0.00 | 0.00 | 90 | 1011.4 |
| 20260507222919 | 52 | 288 | 1.0 | 1.0 | 0.00 | 0.00 | 0.00 | 89 | 1011.5 |
| 20260507222419 | 52 | 288 | 1.0 | 1.0 | 0.00 | 0.00 | 0.00 | 89 | 1011.4 |
| 20260507221917 | 52 | 288 | 1.0 | 1.0 | 0.00 | 0.00 | 0.00 | 88 | 1011.5 |
| 20260507221418 | 52 | 288 | 1.0 | 1.0 | 0.00 | 0.00 | 0.00 | 88 | 1011.3 |
| 20260507220917 | 52 | 288 | 1.0 | 2.0 | 0.00 | 0.00 | 0.00 | 89 | 1011.3 |
| 20260507220418 | 52 | 288 | 1.0 | 2.0 | 0.00 | 0.00 | 0.00 | 89 | 1011.3 |
| 20260507220231 | 52 | 288 | 2.0 | 2.0 | 0.00 | 0.00 | 0.00 | 89 | 1011.3 |
| 20260507215419 | 52 | 288 | 2.0 | 2.0 | 0.00 | 0.00 | 0.00 | 88 | 1011.3 |
| 20260507214918 | 52 | 288 | 1.0 | 2.0 | 0.00 | 0.00 | 0.00 | 88 | 1011.3 |
| 20260507214420 | 53 | 288 | 1.0 | 2.0 | 0.00 | 0.00 | 0.00 | 88 | 1011.3 |
| 20260507213916 | 53 | 288 | 2.0 | 2.0 | 0.00 | 0.00 | 0.00 | 86 | 1011.3 |
| 20260507213736 | 53 | 288 | 2.0 | 2.0 | 0.00 | 0.00 | 0.00 | 85 | 1011.3 |
| 20260507212917 | 54 | 288 | 0.0 | 1.0 | 0.00 | 0.00 | 0.00 | 86 | 1011.3 |
| 20260507212417 | 54 | 288 | 1.0 | 1.0 | 0.00 | 0.00 | 0.00 | 86 | 1011.3 |
| 20260507211918 | 54 | 288 | 0.0 | 2.0 | 0.00 | 0.00 | 0.00 | 86 | 1011.2 |
| 20260507211416 | 54 | 288 | 1.0 | 2.0 | 0.00 | 0.00 | 0.00 | 85 | 1011.1 |
| 20260507210919 | 54 | 96 | 1.0 | 2.0 | 0.00 | 0.00 | 0.00 | 83 | 1011.1 |
| 20260507210417 | 55 | 100 | 0.0 | 2.0 | 0.00 | 0.00 | 0.00 | 83 | 1011.1 |
| 20260507205917 | 55 | 116 | 2.0 | 2.0 | 0.00 | 0.00 | 0.00 | 82 | 1011.0 |
| 20260507205731 | 56 | 117 | 2.0 | 2.0 | 0.00 | 0.00 | 0.00 | 81 | 1011.0 |
| 20260507204915 | 56 | 117 | 1.0 | 1.0 | 0.00 | 0.00 | 0.00 | 80 | 1011.0 |
| 20260507204417 | 56 | 116 | 0.0 | 1.0 | 0.00 | 0.00 | 0.00 | 79 | 1011.0 |
| 20260507203915 | 57 | 116 | 0.0 | 1.0 | 0.00 | 0.00 | 0.00 | 79 | 1011.1 |
| 20260507203417 | 58 | 116 | 0.0 | 1.0 | 0.00 | 0.00 | 0.00 | 76 | 1011.1 |
| 20260507203231 | 58 | 109 | 0.0 | 1.0 | 0.00 | 0.00 | 0.00 | 76 | 1010.9 |
| 20260507202556 | 58 | 109 | 1.0 | 1.0 | 0.00 | 0.00 | 0.00 | 76 | 1010.9 |
| 20260507202520 | 58 | 109 | 0.0 | 1.0 | 0.00 | 0.00 | 0.00 | 77 | 1010.8 |
| 20260507201415 | 58 | 109 | 0.0 | 1.0 | 0.00 | 0.00 | 0.00 | 75 | 1010.9 |
| 20260507200916 | 59 | 109 | 0.0 | 0.0 | 0.00 | 0.00 | 0.00 | 75 | 1010.9 |
| 20260507200416 | 59 | 109 | 0.0 | 0.0 | 0.00 | 0.00 | 0.00 | 75 | 1010.9 |
| 20260507195917 | 59 | 109 | 0.0 | 0.0 | 0.00 | 0.00 | 0.00 | 75 | 1010.8 |
| 20260507195420 | 59 | 109 | 0.0 | 0.0 | 0.00 | 0.00 | 0.00 | 74 | 1010.8 |
| 20260507194917 | 59 | 109 | 0.0 | 0.0 | 0.00 | 0.00 | 0.00 | 74 | 1010.7 |
| 20260507194415 | 59 | 110 | 0.0 | 0.0 | 0.00 | 0.00 | 0.00 | 74 | 1010.7 |
| 20260507193917 | 59 | 110 | 0.0 | 1.0 | 0.00 | 0.00 | 0.00 | 74 | 1010.7 |
| 20260507193416 | 59 | 110 | 0.0 | 1.0 | 0.00 | 0.00 | 0.00 | 74 | 1010.7 |
| 20260507192915 | 59 | 110 | 0.0 | 0.0 | 0.00 | 0.00 | 0.00 | 74 | 1010.6 |
| 20260507192416 | 60 | 110 | 0.0 | 0.0 | 0.00 | 0.00 | 0.00 | 74 | 1010.6 |
| 20260507191914 | 60 | 110 | 0.0 | 0.0 | 0.00 | 0.00 | 0.00 | 73 | 1010.6 |
| 20260507191413 | 60 | 110 | 0.0 | 0.0 | 0.00 | 0.00 | 0.00 | 73 | 1010.6 |
| 20260507190913 | 60 | 110 | 0.0 | 0.0 | 0.00 | 0.00 | 0.00 | 73 | 1010.6 |
| 20260507190416 | 61 | 110 | 0.0 | 0.0 | 0.00 | 0.00 | 0.00 | 72 | 1010.6 |
| 20260507185912 | 61 | 110 | 0.0 | 0.0 | 0.00 | 0.00 | 0.00 | 72 | 1010.5 |
| 20260507185415 | 62 | 110 | 0.0 | 0.0 | 0.00 | 0.00 | 0.00 | 72 | 1010.6 |
| 20260507185122 | 63 | 110 | 0.0 | 0.0 | 0.00 | 0.00 | 0.00 | 69 | 1010.5 |
| 20260507185039 | 62 | 110 | 0.0 | 0.0 | 0.00 | 0.00 | 0.00 | 70 | 1010.6 |
| 20260507183913 | 63 | 110 | 0.0 | 0.0 | 0.00 | 0.00 | 0.00 | 68 | 1010.5 |
| 20260507183413 | 64 | 110 | 0.0 | 0.0 | 0.00 | 0.00 | 0.00 | 67 | 1010.4 |
| 20260507182914 | 64 | 110 | 0.0 | 1.0 | 0.00 | 0.00 | 0.00 | 65 | 1010.5 |
| 20260507182413 | 64 | 110 | 0.0 | 2.0 | 0.00 | 0.00 | 0.00 | 63 | 1010.5 |
| 20260507181914 | 64 | 110 | 1.0 | 2.0 | 0.00 | 0.00 | 0.00 | 63 | 1010.4 |
| 20260507181415 | 64 | 114 | 0.0 | 1.0 | 0.00 | 0.00 | 0.00 | 62 | 1010.4 |
| 20260507180914 | 65 | 114 | 0.0 | 2.0 | 0.00 | 0.00 | 0.00 | 62 | 1010.5 |
| 20260507180731 | 65 | 131 | 1.0 | 3.0 | 0.00 | 0.00 | 0.00 | 62 | 1010.5 |
| 20260507175911 | 65 | 97 | 0.0 | 4.0 | 0.00 | 0.00 | 0.00 | 63 | 1010.5 |
| 20260507175414 | 65 | 109 | 2.0 | 4.0 | 0.00 | 0.00 | 0.00 | 62 | 1010.5 |
| 20260507174911 | 65 | 100 | 2.0 | 5.0 | 0.00 | 0.00 | 0.00 | 60 | 1010.4 |
| 20260507174412 | 66 | 116 | 3.0 | 5.0 | 0.00 | 0.00 | 0.00 | 58 | 1010.5 |
| 20260507174238 | 66 | 114 | 1.0 | 4.0 | 0.00 | 0.00 | 0.00 | 59 | 1010.4 |
| 20260507173414 | 66 | 104 | 0.0 | 2.0 | 0.00 | 0.00 | 0.00 | 59 | 1010.5 |
| 20260507172912 | 65 | 104 | 1.0 | 2.0 | 0.00 | 0.00 | 0.00 | 57 | 1010.4 |
| 20260507172412 | 65 | 100 | 0.0 | 2.0 | 0.00 | 0.00 | 0.00 | 58 | 1010.5 |
| 20260507171910 | 65 | 107 | 0.0 | 3.0 | 0.00 | 0.00 | 0.00 | 59 | 1010.5 |
| 20260507171410 | 65 | 89 | 2.0 | 3.0 | 0.00 | 0.00 | 0.00 | 59 | 1010.5 |
| 20260507170912 | 65 | 104 | 0.0 | 3.0 | 0.00 | 0.00 | 0.00 | 58 | 1010.5 |
| 20260507170415 | 65 | 100 | 0.0 | 3.0 | 0.00 | 0.00 | 0.00 | 59 | 1010.5 |
| 20260507170228 | 65 | 90 | 0.0 | 1.0 | 0.00 | 0.00 | 0.00 | 60 | 1010.4 |
| 20260507165413 | 65 | 90 | 0.0 | 3.0 | 0.00 | 0.00 | 0.00 | 59 | 1010.4 |
| 20260507164912 | 65 | 90 | 2.0 | 4.0 | 0.00 | 0.00 | 0.00 | 58 | 1010.4 |
| 20260507164411 | 65 | 106 | 0.0 | 5.0 | 0.00 | 0.00 | 0.00 | 60 | 1010.5 |
| 20260507163918 | 65 | 78 | 3.0 | 5.0 | 0.00 | 0.00 | 0.00 | 59 | 1010.4 |
| 20260507163522 | 65 | 97 | 2.0 | 5.0 | 0.00 | 0.00 | 0.00 | 61 | 1010.4 |
| 20260507163118 | 65 | 89 | 0.0 | 5.0 | 0.00 | 0.00 | 0.00 | 60 | 1010.4 |
| 20260507161854 | 66 | 114 | 2.0 | 9.0 | 0.00 | 0.00 | 0.00 | 58 | 1010.5 |
| 20260507161848 | 66 | 113 | 0.0 | 4.0 | 0.00 | 0.00 | 0.00 | 59 | 1010.5 |
| 20260507160409 | 66 | 114 | 4.0 | 9.0 | 0.00 | 0.00 | 0.00 | 59 | 1010.5 |
| 20260507155907 | 66 | 87 | 4.0 | 9.0 | 0.00 | 0.00 | 0.00 | 59 | 1010.5 |
| 20260507155722 | 66 | 85 | 2.0 | 6.0 | 0.00 | 0.00 | 0.00 | 58 | 1010.5 |
| 20260507154907 | 66 | 117 | 2.0 | 6.0 | 0.00 | 0.00 | 0.00 | 58 | 1010.6 |
| 20260507154407 | 67 | 110 | 0.0 | 3.0 | 0.00 | 0.00 | 0.00 | 59 | 1010.6 |
| 20260507153907 | 67 | 109 | 1.0 | 5.0 | 0.00 | 0.00 | 0.00 | 58 | 1010.6 |
| 20260507153721 | 67 | 85 | 1.0 | 5.0 | 0.00 | 0.00 | 0.00 | 59 | 1010.6 |
| 20260507152908 | 67 | 86 | 0.0 | 5.0 | 0.00 | 0.00 | 0.00 | 59 | 1010.6 |
| 20260507152408 | 67 | 97 | 2.0 | 6.0 | 0.00 | 0.00 | 0.00 | 57 | 1010.5 |
| 20260507151908 | 67 | 133 | 2.0 | 7.0 | 0.00 | 0.00 | 0.00 | 58 | 1010.5 |
| 20260507151408 | 68 | 106 | 2.0 | 7.0 | 0.00 | 0.00 | 0.00 | 57 | 1010.6 |
| 20260507151217 | 68 | 92 | 2.0 | 4.0 | 0.00 | 0.00 | 0.00 | 56 | 1010.6 |
| 20260507150722 | 68 | 131 | 1.0 | 3.0 | 0.00 | 0.00 | 0.00 | 57 | 1010.6 |
| 20260507145907 | 68 | 121 | 0.0 | 6.0 | 0.00 | 0.00 | 0.00 | 57 | 1010.7 |
| 20260507145538 | 68 | 100 | 3.0 | 10.0 | 0.00 | 0.00 | 0.00 | 60 | 1010.7 |
| 20260507145507 | 68 | 111 | 3.0 | 10.0 | 0.00 | 0.00 | 0.00 | 56 | 1010.7 |
| 20260507144408 | 68 | 100 | 3.0 | 10.0 | 0.00 | 0.00 | 0.00 | 57 | 1010.6 |
| 20260507143908 | 68 | 120 | 4.0 | 7.0 | 0.00 | 0.00 | 0.00 | 54 | 1010.8 |
| 20260507143408 | 68 | 114 | 3.0 | 6.0 | 0.00 | 0.00 | 0.00 | 55 | 1010.8 |
| 20260507143214 | 69 | 68 | 2.0 | 6.0 | 0.00 | 0.00 | 0.00 | 55 | 1010.9 |
| 20260507142719 | 69 | 83 | 1.0 | 6.0 | 0.00 | 0.00 | 0.00 | 57 | 1011.0 |
| 20260507141907 | 69 | 106 | 4.0 | 6.0 | 0.00 | 0.00 | 0.00 | 54 | 1010.9 |
| 20260507141717 | 69 | 16 | 0.0 | 3.0 | 0.00 | 0.00 | 0.00 | 56 | 1010.9 |
| 20260507140909 | 69 | 92 | 1.0 | 3.0 | 0.00 | 0.00 | 0.00 | 59 | 1011.0 |
| 20260507140408 | 69 | 87 | 1.0 | 3.0 | 0.00 | 0.00 | 0.00 | 55 | 1011.1 |
| 20260507135906 | 69 | 23 | 0.0 | 2.0 | 0.00 | 0.00 | 0.00 | 55 | 1011.1 |
| 20260507135407 | 68 | 113 | 0.0 | 4.0 | 0.00 | 0.00 | 0.00 | 56 | 1011.1 |
| 20260507135218 | 68 | 96 | 2.0 | 4.0 | 0.00 | 0.00 | 0.00 | 55 | 1011.3 |
| 20260507134406 | 68 | 336 | 1.0 | 5.0 | 0.00 | 0.00 | 0.00 | 57 | 1011.3 |
| 20260507134218 | 68 | 89 | 3.0 | 5.0 | 0.00 | 0.00 | 0.00 | 54 | 1011.4 |